Location: El Llanito
(35.3300°N, 106.5314°W)
Time: 03:37:04
(UTC+00:00)

Daily predictions for brighter satellites

Satellite Brightness Start Highest point End
(mag) Time Altitude Azimuth Time Altitude Azimuth Time Altitude Azimuth
YAOGAN 1 3.0 01:24:38 10° SE 01:28:40 40° ENE 01:32:44 10° N
Cosmos 1437 3.2 01:30:34 10° N 01:33:20 33° ENE 01:36:04 10° SE
CZ-2C R/B 3.6 01:30:59 10° SE 01:35:48 40° ENE 01:40:53 10° N
Cosmos 1898 Rocket 4.5 01:31:40 10° SSW 01:36:41 52° WNW 01:41:45 10° N
CZ-2C R/B 4.1 01:33:22 10° NE 01:36:56 17° E 01:40:29 10° SE
GP-B 3.6 01:36:37 10° N 01:41:01 66° W 01:45:24 10° SSW
MOS 1 Rocket 3.6 01:40:30 10° NNE 01:44:30 35° E 01:48:24 10° SSE
Cosmos 372 Rocket 4.1 01:39:45 10° S 01:44:53 57° ESE 01:50:00 10° NNE
NOSS 2-2 (C) 3.9 01:42:37 10° SW 01:46:05 53° WNW 01:49:38 10° NNE
Cosmos 2263 Rocket 3.5 01:42:55 10° SW 01:48:11 43° WNW 01:53:29 10° N
Cosmos 1782 Rocket 3.8 01:44:24 10° S 01:48:46 75° W 01:53:13 10° N
Cosmos 1025 Rocket 4.4 01:45:46 10° NNE 01:49:03 20° ENE 01:51:49 12° ESE
ISS -1.6 01:47:53 10° W 01:50:46 26° NNW 01:53:39 10° NNE
Cosmos 1464 Rocket 4.2 01:46:29 10° SSE 01:52:17 47° E 01:58:08 10° NNE
CZ-2D R/B 3.8 01:49:21 10° S 01:53:11 62° W 01:57:02 10° NNW
Cosmos 1844 Rocket 3.1 01:49:18 10° S 01:54:24 38° ESE 01:59:31 10° NE
Cosmos 1867 4.1 01:52:31 10° NNW 01:57:39 40° NE 02:01:45 15° ESE
Cosmos 2151 Rocket 4.3 01:53:56 10° SSE 01:57:50 31° E 02:01:47 10° NNE
Cosmos 2084 Rocket 3.5 01:54:45 10° NNW 01:59:15 89° NE 02:03:48 10° SSE
SJ-11-01 4.3 01:57:21 10° SSE 02:01:57 57° ENE 02:06:34 10° N
Cosmos 2150 Rocket 4.1 01:59:54 10° S 02:05:05 54° ESE 02:10:22 10° NNE
CZ-2C R/B 0.8 02:01:29 10° W 02:05:10 87° S 02:07:04 25° E
Cosmos 1125 Rocket 4.0 02:04:26 10° SSE 02:09:16 37° E 02:14:07 10° NE
Milstar 3 Cent rocket 3.4 02:04:37 10° SW 02:11:25 31° S 02:14:14 20° SE
Longmarch 3A Rocket 3.0 02:10:47 10° SSW 02:12:30 19° SSE 02:12:56 18° SSE
USA 234 3.6 02:07:00 10° ENE 02:13:05 40° SE 02:19:09 10° SSW
Cosmos 1943 3.4 02:07:37 10° NNW 02:13:15 73° WSW 02:18:53 10° SSE
CSL-04 Debris 4.2 02:11:42 10° SSE 02:17:05 85° WSW 02:22:29 10° NNW
Shenzhou-11 Module 3.8 02:15:44 10° SSW 02:16:04 12° SSW 02:16:04 12° SSW
Cosmos 1975 Rocket 3.5 02:13:39 10° NNW 02:17:56 63° W 02:22:11 10° S
Cosmos 1891 Rocket 4.4 02:13:14 10° S 02:19:23 87° E 02:25:29 10° N
BREEZE-M DEB (TANK) 3.5 02:17:58 10° NNW 02:19:17 19° NNE 02:19:17 19° NNE
CSL-04 Rocket 3.8 02:18:24 10° S 02:23:46 78° WSW 02:29:16 10° NNW
IRIS 4.4 02:21:26 10° WSW 02:25:18 67° NNW 02:26:06 42° NE
NOSS 3-4 (A) 3.8 02:20:48 10° S 02:26:00 34° ESE 02:30:10 15° NE
NOSS 3-4 (C) 3.9 02:20:57 10° S 02:26:07 33° ESE 02:29:46 18° ENE
HJ-1C 4.0 02:26:46 10° S 02:29:59 56° W 02:33:14 10° NNW
Cosmos 1674 4.4 02:27:15 10° NNE 02:28:51 19° NE 02:28:51 19° NE
H-2A R/B 2.9 02:32:31 10° SW 02:33:48 22° S 02:33:48 22° S
Meteor 1-15 Rocket 4.2 02:29:05 10° S 02:34:31 57° E 02:40:04 10° NNE
Exosat Rocket 3.6 02:30:16 10° S 02:36:22 64° ESE 02:41:23 10° NNE
H-2A R/B 2.3 02:32:51 10° S 02:37:44 66° W 02:42:44 10° NNW
IRS-1A Rocket 4.4 02:38:36 28° SE 02:41:35 58° ENE 02:47:20 10° N
Cosmos 1048 Rocket 4.3 02:37:16 10° N 02:42:26 49° ENE 02:43:26 43° ESE
CZ-4 R/B 4.4 02:45:02 10° SW 02:47:51 17° W 02:50:42 10° NW
ATLAS 2AS CENTAUR R/B 3.1 02:40:45 10° S 02:48:17 52° ESE 02:55:56 10° NE
Nadezhda 4 Rocket 3.8 02:42:36 10° N 02:48:43 72° E 02:52:33 24° SSE
Cosmos 2034 Rocket 4.1 02:44:21 10° S 02:50:43 80° W 02:57:06 10° N
BREEZE-M DEB (TANK) 3.8 02:47:38 10° NW 02:51:21 53° NE 02:54:11 36° E
Okean 1 Rocket 3.7 02:53:24 42° NE 02:53:24 42° NE 02:56:36 10° NNE
Cosmos 1707 4.1 02:51:35 10° NNW 02:55:08 37° W 02:58:23 12° SSW
Ariane Rocket 2.8 02:56:55 50° SSE 02:58:17 82° ENE 03:03:23 10° N
CENTAUR R/B 3.7 02:51:26 10° NNW 02:59:14 44° NE 03:01:27 38° E
GOES 2 Rocket 4.2 02:57:07 10° WSW 03:00:00 30° SSW 03:00:00 30° SSW
ATLAS 3B R/B 4.4 03:02:44 10° N 03:06:53 16° NE 03:07:17 16° NE
SJ-6B 4.0 03:08:51 35° NNW 03:08:51 35° NNW 03:11:08 10° NNW
Cosmos 494 Rocket 4.4 03:02:32 10° N 03:06:52 48° NE 03:06:52 48° NE
ARGOS 4.0 03:02:50 10° S 03:07:58 47° W 03:13:08 10° NNW
DELTA 2 R/B (1) 4.2 03:03:53 10° W 03:09:05 43° SSW 03:09:53 40° S
SL-08 RB Rocket 4.3 03:09:04 36° SSW 03:10:39 54° W 03:15:09 10° NNW
Meteor 2-5 Rocket 4.1 03:05:45 10° N 03:10:22 48° NE 03:10:22 48° NE
ATLAS 5 CENTAUR R/B 4.4 03:08:18 10° WNW 03:12:48 46° SW 03:28:35 10° SSE
USA 186 4.2 03:14:50 22° NW 03:14:50 22° NW 03:16:19 10° NNW
USA 238 DEB 3.8 03:08:01 10° NNW 03:15:20 72° ENE 03:16:46 59° ESE
USA 238 3.8 03:08:07 10° NNW 03:15:27 72° ENE 03:16:50 59° ESE
CZ-2C R/B 3.4 03:12:02 10° N 03:17:28 55° WNW 03:22:54 10° SSW
Cosmos 1634 Rocket 3.8 03:21:52 79° ESE 03:22:03 80° E 03:28:15 10° N
SPOT 3 Rocket 4.4 03:25:35 39° N 03:25:35 39° N 03:28:53 10° N
NOSS 3-2 (A) 4.2 03:34:25 10° NW 03:42:18 74° WSW 03:43:55 60° S
CZ-2C R/B 4.2 03:41:19 10° W 03:41:25 11° W 03:41:25 11° W
Cosmos 1092 Rocket 4.3 03:43:32 10° NNW 03:49:34 59° W 03:49:45 59° W
Cosmos 2026 Rocket 4.4 03:47:50 10° N 03:53:11 62° NW 03:53:11 62° NW
USA 234 3.9 03:52:10 23° NNE 03:56:06 51° NW 04:02:22 10° WSW
Resurs 01 Rocket 4.5 04:14:24 13° NNW 04:14:24 13° NNW 04:14:56 10° NNW
NOSS 3-2 (C) 4.3 04:10:11 10° NW 04:17:17 66° W 04:17:17 66° W
ATLAS 2AS CENTAUR R/B 4.3 04:32:21 10° WSW 04:39:31 36° NW 04:46:42 10° NNE
CENTAUR R/B 4.0 04:42:08 10° NW 04:48:39 44° W 04:48:39 44° W
ATLAS 3B R/B 4.4 04:51:41 10° NNW 04:54:33 27° NNW 04:54:33 27° NNW
BREEZE-M DEB (TANK) 4.3 09:39:27 64° E 09:39:27 64° E 09:53:18 10° ENE
Lacrosse 5 4.4 09:45:25 15° NNE 09:45:25 15° NNE 09:46:31 10° NNE
NOSS 3-3 (A) 4.4 10:06:31 53° NE 10:06:31 53° NE 10:11:16 10° NE
NOSS 3-3 (C) 4.4 10:06:41 52° NE 10:06:41 52° NE 10:11:20 10° NE
USA 267 3.9 10:04:24 10° NNE 10:09:48 43° NNW 10:09:48 43° NNW
MSX 3.7 10:24:13 10° NNE 10:30:01 82° ESE 10:30:09 81° SE
Timation 1 Rocket 4.3 10:25:50 10° NNW 10:31:52 84° ENE 10:37:52 10° SSE
Cosmos 1980 Rocket 3.3 10:34:34 31° NNW 10:34:34 31° NNW 10:38:01 10° N
Cosmos 2322 Rocket 3.0 10:37:25 32° SSE 10:39:39 49° ESE 10:45:07 10° NNE
USA 234 4.1 10:35:55 10° ESE 10:42:05 47° NE 10:48:15 10° NNW
SL-4 R/B 2.6 10:43:55 63° ENE 10:43:55 63° ENE 10:47:56 10° NE
Cosmos 2263 Rocket 3.0 10:39:05 10° N 10:44:35 49° ENE 10:50:04 10° SE
Cosmos 2228 Rocket 4.4 10:47:14 30° N 10:47:14 30° N 10:49:32 10° N
SL-16 R/B 2.2 10:47:26 50° S 10:48:56 76° ESE 10:54:37 10° NNE
Meteor 1-4 Rocket 4.2 10:50:45 29° NNE 10:50:45 29° NNE 10:52:36 10° NNE
ARIANE 5 R/B 4.2 10:51:00 10° NNW 10:53:01 20° NNW 10:53:01 20° NNW
Cosmos 1934 Rocket 4.0 10:51:35 10° NNW 10:57:13 51° W 10:57:13 51° W
COSMOS 2441 4.5 10:53:16 10° N 10:57:43 57° NW 10:57:43 57° NW
Cosmos 1869 Rocket 3.6 10:54:00 10° N 10:58:20 73° E 11:02:38 10° SSE
CZ-2C R/B 2.7 10:55:36 10° NNE 11:00:46 73° ESE 11:04:21 20° S
Meteor 1-10 Rocket 4.1 10:59:42 40° SSW 11:01:51 76° W 11:07:44 10° N
IDEFIX/ARIANE 42P 3.7 10:57:27 10° N 11:00:51 29° NW 11:00:51 29° NW
Cosmos 1763 Rocket 3.4 11:01:39 45° SSW 11:03:20 86° WNW 11:08:41 10° NNE
Cosmos 2227 4.2 10:58:23 10° NNW 11:04:02 79° ENE 11:09:39 10° SSE
CZ-4B R/B 4.2 11:04:39 10° ESE 11:06:56 19° ENE 11:09:16 10° NNE
IRIDIUM 106 4.2 11:01:51 10° N 11:07:06 88° E 11:12:18 10° S
SJ 16-02 1.3 11:03:25 10° NNW 11:07:49 81° ENE 11:12:13 10° SSE
PSLV R/B 3.3 11:06:35 10° N 11:10:47 81° WNW 11:11:42 54° SSW
H-2A R/B 1.9 11:06:48 10° S 11:11:07 78° WSW 11:15:34 10° NNW
Cosmos 967 Rocket 4.4 11:11:37 28° SSW 11:15:13 84° WNW 11:21:40 10° NNE
Cosmos 1238 Rocket 4.3 11:11:10 10° NNW 11:17:02 38° W 11:17:48 37° WSW
Cosmos 1570 Rocket 4.5 11:12:21 10° S 11:17:33 61° ESE 11:22:49 10° NNE
Meteor 1-5 Rocket 4.0 11:12:56 10° NNW 11:18:15 68° W 11:23:40 10° S
Cosmos 1153 Rocket 4.5 11:14:32 10° N 11:20:56 87° W 11:27:13 10° S
Landsat 5 3.6 11:16:45 10° S 11:21:10 57° W 11:25:37 10° NNW
ERS-2 2.2 11:18:05 10° SSE 11:21:43 75° ENE 11:25:23 10° N
X-37B 2.9 11:23:27 16° NNW 11:24:48 20° NNE 11:27:15 10° ENE
Cosmos 1605 Rocket 4.2 11:18:44 10° NNW 11:24:53 50° W 11:31:00 10° SSW
SL-19 R/B 4.5 11:23:42 10° NNE 11:28:15 83° ESE 11:31:52 12° SSW
PAYLOAD A 4.0 11:24:06 10° N 11:28:37 48° WNW 11:30:37 29° SW
Cosmos 2333 Rocket 4.5 11:25:11 10° SSE 11:29:46 25° ESE 11:34:24 10° NE
Cosmos 540 Rocket 3.5 11:24:42 10° SSW 11:29:51 82° ESE 11:35:03 10° NNE
BREEZE M DEB (TANK) 3.5 11:20:03 10° NW 11:31:13 71° NNE 11:34:46 10° ESE
Cosmos 990 Rocket 3.9 11:26:32 10° NNW 11:31:45 86° WSW 11:36:58 10° SSE
Cosmos 468 Rocket 4.5 11:30:16 31° WSW 11:31:59 40° WNW 11:36:56 10° N
Cosmos 1484 Rocket 3.3 11:32:43 10° NNE 11:36:42 63° E 11:40:39 10° S
ALOS 2.6 11:35:03 10° NNE 11:39:42 67° E 11:44:19 10° S
Cosmos 1536 2.7 11:40:01 10° N 11:44:06 80° W 11:48:08 10° S
Cosmos 1437 Rocket 3.5 11:43:32 10° S 11:47:13 53° E 11:50:56 10° NNE
Meteor 1-31 Rocket 3.0 11:44:26 10° NNE 11:48:15 71° E 11:52:05 10° S
